Jujuy, Argentina

10:38 AM America on September 15, 2019 (GMT +0000)
Gobernador Horacio Guzman

Weather History for SASJ - August, 2019

Change the Weather History Date:

Tuesday, August 20, 2019

  Actual Average Record
Temperature  
Mean Temperature 56 °F -  
Max Temperature 69 °F 75 °F 89 °F (1999)
Min Temperature 43 °F 49 °F 32 °F (2007)
Degree Days  
Heating Degree Days 9    
Growing Degree Days 6 (Base 50)    
Moisture  
Dew Point 38 °F    
Average Humidity 52    
Maximum Humidity 76    
Minimum Humidity 21    
Precipitation  
Precipitation 0.00 in - - ()
Sea Level Pressure  
Sea Level Pressure 30.26 in    
Wind  
Wind Speed 6 mph ()    
Max Wind Speed 12 mph    
Max Gust Speed -    
Visibility 7.6 miles    
Events      
Averages and records for this station are not official NWS values.
T = Trace of Precipitation, MM = Missing Value Source: Averaged Metar Reports

Daily Weather History Graph

Daily Weather History Graph

Search for Another Location

Airport or City:

Astronomy

Aug. 20, 2019 Rise Set
Actual Time 7:43 AM -03 7:04 PM -03
Civil Twilight 7:19 AM -03 7:27 PM -03
Nautical Twilight 6:53 AM -03 7:54 PM -03
Astronomical Twilight 6:26 AM -03 8:21 PM -03
Moon 11:30 PM -03 (8/20) 10:49 AM -03 (8/20)
Length of Visible Light 12h 08m
Length of Day
11h 21m
Waning Gibbous, 78% of the Moon is Illuminated
Aug 20
Waning Gibbous
Aug 23
Last Quarter
Aug 30
New
Sep 6
First Quarter
Sep 14
Full

Hourly Weather History & Observations

Time (-03) Temp. Windchill Dew Point Humidity Pressure Visibility Wind Dir Wind Speed Gust Speed Precip Events Conditions
12:00 AM 47 °F - 38 °F 63%  in 6 mi WNW 4.6 mph - -  
12:00 AM 46.4 °F 44.3 °F 39.2 °F 76% 30.24 in - WNW 4.6 mph - N/A   Clear
1:00 AM 46 °F - 38 °F 65%  in 6 mi WNW 3.5 mph - -  
1:00 AM 46.4 °F 45.2 °F 37.4 °F 71% 30.24 in - WNW 3.5 mph - N/A   Clear
2:00 AM 46 °F - 38 °F 66%  in 6 mi WNW 5.8 mph - -  
2:00 AM 46.4 °F 43.5 °F 39.2 °F 76% 30.24 in - WNW 5.8 mph - N/A   Clear
3:00 AM 45 °F - 38 °F 68%  in 6 mi WNW 6.9 mph - -  
3:00 AM 44.6 °F 40.7 °F 37.4 °F 76% 30.24 in - WNW 6.9 mph - N/A   Clear
4:00 AM 44 °F - 37 °F 69%  in 6 mi West 6.9 mph - -  
4:00 AM 44.6 °F 40.7 °F 37.4 °F 76% 30.24 in - West 6.9 mph - N/A   Clear
5:00 AM 44 °F - 38 °F 71%  in 6 mi NNW 4.6 mph - -   Partly Cloudy
5:00 AM 44.6 °F 42.2 °F 37.4 °F 76% 30.24 in - NNW 4.6 mph - N/A   Clear
6:00 AM 45 °F - 38 °F 69%  in 6 mi WNW 4.6 mph - -   Mostly Cloudy
6:00 AM 44.6 °F 42.2 °F 37.4 °F 76% 30.24 in - WNW 4.6 mph - N/A   Clear
7:00 AM 45 °F - 38 °F 68%  in 6 mi WNW 3.5 mph - -   Partly Cloudy
7:00 AM 44.6 °F 43.1 °F 37.4 °F 76% 30.27 in - WNW 3.5 mph - N/A   Clear
8:00 AM 45 °F - 37 °F 66%  in 9 mi NW 3.5 mph - -   Partly Cloudy
8:00 AM 44.6 °F 43.1 °F 37.4 °F 76% 30.27 in 6.2 mi NW 3.5 mph - N/A   Scattered Clouds
9:00 AM 51 °F - 36 °F 44%  in 9 mi SE 5.8 mph - -   Partly Cloudy
9:00 AM 51.8 °F - 35.6 °F 54% 30.30 in - SE 5.8 mph - N/A   Clear
10:00 AM 53.6 °F - 37.4 °F 54% 30.33 in - SSE 5.8 mph - N/A   Clear
11:00 AM 58 °F - 38 °F 36%  in 9 mi East 3.5 mph - -  
11:00 AM 59.0 °F - 37.4 °F 45% 30.33 in - East 3.5 mph - N/A   Clear
12:00 PM 60 °F - 38 °F 33%  in 9 mi West 4.6 mph - -  
12:00 PM 60.8 °F - 39.2 °F 45% 30.33 in - West 4.6 mph - N/A   Clear
1:00 PM 65 °F - 38 °F 25%  in 9 mi East 11.5 mph - -  
1:00 PM 64.4 °F - 37.4 °F 37% 30.30 in - East 11.5 mph - N/A   Clear
2:00 PM 67 °F - 36 °F 21%  in 9 mi NE 8.1 mph - -  
2:00 PM 66.2 °F - 37.4 °F 35% 30.27 in - NE 8.1 mph - N/A   Clear
3:00 PM 67 °F - 39 °F 24%  in 9 mi ENE 9.2 mph - -  
3:00 PM 68.0 °F - 39.2 °F 35% 30.24 in - ENE 9.2 mph - N/A   Clear
4:00 PM 69 °F - 38 °F 22%  in 9 mi East 11.5 mph - -  
4:00 PM 69.8 °F - 39.2 °F 33% 30.24 in - East 11.5 mph - N/A   Clear
5:00 PM 68 °F - 38 °F 22%  in 9 mi ENE 11.5 mph - -  
5:00 PM 68.0 °F - 37.4 °F 33% 30.21 in - ENE 11.5 mph - N/A   Clear
6:00 PM 66 °F - 38 °F 24%  in 9 mi NE 9.2 mph - -  
6:00 PM 66.2 °F - 37.4 °F 35% 30.21 in - NE 9.2 mph - N/A   Clear
7:00 PM 62.6 °F - 39.2 °F 42% 30.21 in - NE 6.9 mph - N/A   Clear
8:00 PM 59 °F - 40 °F 37%  in 9 mi NE 5.8 mph - -  
8:00 PM 59.0 °F - 39.2 °F 48% 30.24 in - NE 5.8 mph - N/A   Clear
9:00 PM 57 °F - 39 °F 39%  in 7 mi NNW 8.1 mph - -  
9:00 PM 57.2 °F - 39.2 °F 51% 30.27 in - NNW 8.1 mph - N/A   Clear
10:00 PM 52 °F - 37 °F 46%  in 7 mi NW 6.9 mph - -  
10:00 PM 51.8 °F - 37.4 °F 58% 30.30 in - NW 6.9 mph - N/A   Clear
11:00 PM 50 °F - 37 °F 51%  in 7 mi West 6.9 mph - -  
11:00 PM 50.0 °F - 37.4 °F 62% 30.30 in - West 6.9 mph - N/A   Clear